• In Uzbekistan
  • List of Countries
  • For 7 days
  • Water Temperature
  • Weather Map
  • Weather Widgets
  • user-avatar
    Login

    Hourly Weather Yulara

    Today, 23 September, Monday

    Time Temperature Precipitation Wind Pressure Humidity
    00:00 +12°C° 0 mm 5 mps 725 mmHg 26%
    01:00 +12°C° 0 mm 5 mps 725 mmHg 26%
    02:00 +11°C° 0 mm 6 mps 725 mmHg 27%
    03:00 +11°C° 0 mm 6 mps 724 mmHg 28%
    04:00 +11°C° 0 mm 6 mps 725 mmHg 29%
    05:00 +10°C° 0 mm 5 mps 725 mmHg 30%
    06:00 +10°C° 0 mm 5 mps 726 mmHg 31%
    07:00 +13°C° 0 mm 6 mps 726 mmHg 28%
    08:00 +15°C° 0 mm 8 mps 726 mmHg 25%
    09:00 +17°C° 0 mm 9 mps 726 mmHg 22%
    10:00 +19°C° 0 mm 9 mps 726 mmHg 20%
    11:00 +22°C° 0 mm 8 mps 726 mmHg 19%
    12:00 +24°C° 0 mm 8 mps 726 mmHg 17%
    13:00 +24°C° 0 mm 7 mps 725 mmHg 17%
    14:00 +24°C° 0 mm 7 mps 725 mmHg 17%
    15:00 +24°C° 0 mm 6 mps 724 mmHg 18%
    16:00 +23°C° 0 mm 6 mps 724 mmHg 19%
    17:00 +22°C° 0 mm 6 mps 724 mmHg 21%
    18:00 +21°C° 0 mm 5 mps 724 mmHg 23%
    19:00 +20°C° 0 mm 5 mps 725 mmHg 27%
    20:00 +17°C° 0 mm 5 mps 726 mmHg 31%
    21:00 +17°C° 0 mm 4 mps 726 mmHg 36%
    22:00 +16°C° 0 mm 5 mps 726 mmHg 40%
    23:00 +15°C° 0 mm 5 mps 726 mmHg 45%

    Tomorrow, 24 September, Tuesday

    Time Temperature Precipitation Wind Pressure Humidity
    00:00 +15°C° 0 mm 6 mps 725 mmHg 50%
    01:00 +14°C° 0 mm 5 mps 725 mmHg 52%
    02:00 +14°C° 0 mm 4 mps 725 mmHg 54%
    03:00 +13°C° 0 mm 3 mps 724 mmHg 55%
    04:00 +14°C° 0 mm 3 mps 724 mmHg 52%
    05:00 +14°C° 0 mm 4 mps 725 mmHg 49%
    06:00 +14°C° 0 mm 4 mps 725 mmHg 46%
    07:00 +14°C° 0 mm 4 mps 725 mmHg 43%
    08:00 +15°C° 0 mm 5 mps 726 mmHg 41%
    09:00 +15°C° 0 mm 5 mps 727 mmHg 38%
    10:00 +15°C° 0.1 mm 6 mps 727 mmHg 45%
    11:00 +14°C° 0.1 mm 6 mps 727 mmHg 51%
    12:00 +14°C° 0.1 mm 6 mps 727 mmHg 57%
    13:00 +13°C° 0.5 mm 5 mps 726 mmHg 66%
    14:00 +12°C° 0.5 mm 5 mps 725 mmHg 74%
    15:00 +10°C° 0.5 mm 5 mps 724 mmHg 82%
    16:00 +12°C° 0 mm 5 mps 724 mmHg 81%
    17:00 +12°C° 0 mm 5 mps 724 mmHg 80%
    18:00 +12°C° 0 mm 5 mps 724 mmHg 78%
    19:00 +12°C° 0 mm 4 mps 725 mmHg 81%
    20:00 +11°C° 0 mm 3 mps 725 mmHg 83%
    21:00 +10°C° 0 mm 3 mps 725 mmHg 86%
    22:00 +10°C° 0 mm 3 mps 725 mmHg 88%
    23:00 +10°C° 0 mm 2 mps 725 mmHg 90%

    Day after tomorrow, 25 September, Wednesday

    Time Temperature Precipitation Wind Pressure Humidity
    00:00 +9°C° 0 mm 2 mps 724 mmHg 92%
    01:00 +9°C° 0 mm 3 mps 724 mmHg 92%
    02:00 +9°C° 0 mm 3 mps 724 mmHg 93%
    03:00 +9°C° 0 mm 3 mps 723 mmHg 93%
    04:00 +9°C° 0 mm 3 mps 724 mmHg 93%
    05:00 +9°C° 0 mm 3 mps 724 mmHg 93%
    06:00 +8°C° 0 mm 3 mps 724 mmHg 93%
    07:00 +11°C° 0 mm 4 mps 724 mmHg 81%
    08:00 +14°C° 0 mm 5 mps 724 mmHg 69%
    09:00 +17°C° 0 mm 5 mps 725 mmHg 57%
    10:00 +20°C° 0 mm 5 mps 724 mmHg 50%
    11:00 +22°C° 0 mm 5 mps 724 mmHg 44%
    12:00 +25°C° 0 mm 5 mps 723 mmHg 37%
    13:00 +26°C° 0 mm 5 mps 723 mmHg 34%
    14:00 +26°C° 0 mm 4 mps 722 mmHg 31%
    15:00 +27°C° 0 mm 3 mps 721 mmHg 28%
    16:00 +26°C° 0 mm 3 mps 721 mmHg 30%
    17:00 +25°C° 0 mm 2 mps 721 mmHg 31%
    18:00 +24°C° 0 mm 2 mps 721 mmHg 33%
    19:00 +22°C° 0 mm 3 mps 722 mmHg 35%
    20:00 +21°C° 0 mm 3 mps 722 mmHg 38%
    21:00 +20°C° 0 mm 3 mps 722 mmHg 40%
    22:00 +19°C° 0 mm 4 mps 722 mmHg 43%
    23:00 +18°C° 0 mm 4 mps 722 mmHg 46%

    26 September, Thursday

    Time Temperature Precipitation Wind Pressure Humidity
    00:00 +17°C° 0 mm 4 mps 722 mmHg 49%
    01:00 +17°C° 0 mm 4 mps 721 mmHg 51%
    02:00 +15°C° 0 mm 4 mps 721 mmHg 52%
    03:00 +14°C° 0 mm 4 mps 721 mmHg 54%
    04:00 +14°C° 0 mm 4 mps 721 mmHg 56%
    05:00 +13°C° 0 mm 4 mps 721 mmHg 58%
    06:00 +13°C° 0 mm 4 mps 722 mmHg 60%
    07:00 +16°C° 0 mm 5 mps 722 mmHg 51%
    08:00 +20°C° 0 mm 5 mps 723 mmHg 41%
    09:00 +23°C° 0 mm 6 mps 723 mmHg 32%
    10:00 +26°C° 0 mm 5 mps 723 mmHg 29%
    11:00 +28°C° 0 mm 5 mps 722 mmHg 26%
    12:00 +29°C° 0 mm 4 mps 722 mmHg 24%
    13:00 +30°C° 0 mm 4 mps 721 mmHg 22%
    14:00 +31°C° 0 mm 3 mps 720 mmHg 21%
    15:00 +31°C° 0 mm 3 mps 719 mmHg 20%
    16:00 +30°C° 0 mm 3 mps 719 mmHg 22%
    17:00 +29°C° 0 mm 2 mps 719 mmHg 24%
    18:00 +28°C° 0 mm 2 mps 719 mmHg 27%
    19:00 +28°C° 0 mm 2 mps 720 mmHg 28%
    20:00 +27°C° 0 mm 2 mps 720 mmHg 29%
    21:00 +26°C° 0 mm 3 mps 721 mmHg 30%
    22:00 +26°C° 0 mm 3 mps 720 mmHg 31%
    23:00 +25°C° 0 mm 3 mps 720 mmHg 32%

    27 September, Friday

    Time Temperature Precipitation Wind Pressure Humidity
    00:00 +25°C° 0 mm 3 mps 720 mmHg 33%
    01:00 +24°C° 0 mm 3 mps 720 mmHg 34%
    02:00 +22°C° 0 mm 3 mps 719 mmHg 35%
    03:00 +21°C° 0 mm 3 mps 719 mmHg 36%
    04:00 +21°C° 0 mm 3 mps 719 mmHg 38%
    05:00 +20°C° 0 mm 3 mps 720 mmHg 40%
    06:00 +19°C° 0 mm 2 mps 720 mmHg 41%
    07:00 +22°C° 0 mm 3 mps 720 mmHg 36%
    08:00 +25°C° 0 mm 3 mps 721 mmHg 31%
    09:00 +28°C° 0 mm 4 mps 721 mmHg 25%
    10:00 +29°C° 0 mm 4 mps 721 mmHg 23%
    11:00 +32°C° 0 mm 4 mps 721 mmHg 20%
    12:00 +34°C° 0 mm 4 mps 720 mmHg 17%
    13:00 +34°C° 0 mm 5 mps 720 mmHg 17%
    14:00 +35°C° 0 mm 5 mps 719 mmHg 17%
    15:00 +35°C° 0 mm 6 mps 719 mmHg 16%
    16:00 +34°C° 0 mm 5 mps 719 mmHg 18%
    17:00 +33°C° 0 mm 4 mps 719 mmHg 19%
    18:00 +32°C° 0 mm 4 mps 719 mmHg 21%
    19:00 +29°C° 0 mm 4 mps 719 mmHg 22%
    20:00 +28°C° 0 mm 4 mps 720 mmHg 24%
    21:00 +27°C° 0 mm 4 mps 720 mmHg 25%
    22:00 +26°C° 0 mm 4 mps 720 mmHg 28%
    23:00 +25°C° 0 mm 3 mps 719 mmHg 31%

    28 September, Saturday

    Time Temperature Precipitation Wind Pressure Humidity
    00:00 +24°C° 0 mm 3 mps 719 mmHg 33%
    01:00 +22°C° 0 mm 3 mps 718 mmHg 34%
    02:00 +21°C° 0 mm 2 mps 718 mmHg 35%
    03:00 +20°C° 0 mm 2 mps 718 mmHg 36%
    04:00 +20°C° 0 mm 2 mps 718 mmHg 38%
    05:00 +20°C° 0 mm 1 mps 718 mmHg 39%
    06:00 +20°C° 0 mm 1 mps 718 mmHg 40%
    07:00 +23°C° 0 mm 1 mps 719 mmHg 34%
    08:00 +27°C° 0 mm 1 mps 720 mmHg 28%
    09:00 +30°C° 0 mm 1 mps 720 mmHg 22%
    10:00 +32°C° 0 mm 2 mps 720 mmHg 20%
    11:00 +35°C° 0 mm 3 mps 720 mmHg 18%
    12:00 +37°C° 0 mm 4 mps 719 mmHg 16%
    13:00 +36°C° 0 mm 5 mps 719 mmHg 17%
    14:00 +36°C° 0 mm 5 mps 719 mmHg 18%
    15:00 +35°C° 0 mm 6 mps 718 mmHg 19%
    16:00 +33°C° 0 mm 6 mps 719 mmHg 23%
    17:00 +32°C° 0 mm 5 mps 719 mmHg 27%
    18:00 +29°C° 0 mm 4 mps 719 mmHg 30%
    19:00 +28°C° 0 mm 5 mps 720 mmHg 34%
    20:00 +27°C° 0 mm 6 mps 721 mmHg 38%
    21:00 +26°C° 0 mm 6 mps 721 mmHg 42%
    22:00 +24°C° 0 mm 6 mps 721 mmHg 48%
    23:00 +22°C° 0 mm 5 mps 721 mmHg 53%
    Show more